OPS 4682 DEB, 38416

Orbit data source: Space-Track

OPS 4682 DEB, 38416 is space debris in LEO originally from a launch on Sat, 03 Apr 1965 UTC launched from the Air Force Western Test Range (AFWTR). Debris objects in space refer to the collection of defunct objects orbiting the Earth. Examples of debris include non-operational satellites, rocket bodies, and fragments generated from explosions, collisions, or faulty payload assembly.

Loading next visibility...
Identifier
38416, 1965-027DV
Orbit
LEO
Country
Flag of USUS
Related business
Manufacturer
Unknown
Mission
Spacecraft
Bus & Motor
Unknown
Mass
Unknown
Launch date (UTC)
1965-04-03 (61 years ago)
Launch vehicle
Unknown
Launch site
Air Force Western Test Range (AFWTR)
Object type
Payload
Rocket body
Debris
Shape & HBR
Unknown shape, 0.1 m
Radar Cross Section
Small (<0.1 m²)

Expand to show TLE details & history
Last TLE update: 18 hours ago

TLE from 18 hours ago
0 OPS 4682 DEB
1 38416U 65027DV  26118.95747650 -.00000171  00000-0 -62547-3 0  9991
2 38416  90.2487   8.5512 0030803 270.2231  89.5358 12.95838675628341
Epoch: 2026-04-28T22:58Z
TLE epoch observation values (Epoch: 2026-04-28T22:58:45.969Z)
Latitude
-0.00013°
Longitude
166.93433°
Altitude
1,281.194 km
Speed
7.215 km/s
True Right ascension
00h 34m 12s
True Declination
0° 00' 00"
Sunlit
Object was in daylight at epoch
Visualization orbit readout
Latitude
Unknown
Longitude
Unknown
Altitude
Unknown
Speed
Unknown
Apparent Right ascension
Unknown
Apparent Declination
Unknown
Sunlit
N/A
Visualization observer readout
Local Sidereal Time
00:36:30
Azimuth
Unknown
Elevation
Unknown
Doppler factor
Unknown
Orbital elements
Apogee altitude
1,299.143 km
Perigee altitude
1,251.992 km
Semi-major axis
7,653.705 km
Eccentricity
0.00308
Inclination
90.2487°
RAAN
8.5512°
Arg. of periapsis
270.2231°
True anomaly
89.88877°
Mean anomaly
89.5358°
Eccentric anomaly
89.71229°
Mean motion
3.24142 °/min
Orbital period
111.06 mins
BSTAR
-0.00062547
Loading maneuver chart data...
Computing Atmospheric mass density...
Loading historical data...
Loading historical data...
Loading historical data...
Loading historical data...
Loading historical data...
Loading historical data...
Loading historical data...

Documentation

Showing up to 5 results
|